Temp
-3 -3 -3 -4 -4 -4 -4 -4 -4 -5 -5 -6 -6 -6 -6 -7 -7 -7 -6 -7 -7 -7 -6 -7 -6 -6 -5 -6 -5 -5 -5 -4 -6 -5 -5 -5 -5 -5 -5 -4 -5 -4 -4 -4 -4
-3 -3 -3 -4 -4 -4 -4 -4 -4 -5 -5 -6 -6 -6 -6 -6 -7 -7 -7 -7 -6 -6 -6 -7 -7 -6 -6 -6 -6 -5 -5 -6 -6 -5 -6 -4 -5 -5 -4 -4 -4 -4 -5 -5 -5
-3 -3 -3 -4 -4 -4 -4 -4 -4 -5 -5 -6 -6 -6 -6 -6 -7 -7 -8 -7 -5 -7 -7 -6 -6 -6 -6 -5 -6 -7 -7 -7 -6 -6 -4 -6 -5 -4 -5 -5 -5 -4 -4 -4 -5
-3 -3 -3 -4 -4 -4 -4 -4 -4 -5 -5 -6 -6 -6 -6 -6 -7 -7 -8 -7 -5 -7 -7 -7 -6 -6 -6 -7 -5 -6 -7 -7 -6 -5 -5 -5 -4 -4 -4 -3 -4 -4 -4 -4 -5
-3 -4 -4 -4 -4 -4 -4 -4 -4 -5 -5 -6 -7 -7 -6 -6 -6 -7 -8 -6 -5 -7 -7 -6 -7 -7 -8 -7 -7 -6 -6 -7 -7 -6 -5 -5 -6 -4 -4 -4 -4 -4 -4 -4 -5
-3 -4 -4 -4 -4 -4 -4 -4 -5 -5 -6 -6 -7 -7 -6 -6 -6 -7 -7 -7 -6 -7 -8 -7 -6 -7 -6 -6 -7 -6 -7 -6 -6 -5 -5 -5 -4 -3 -4 -4 -4 -4 -3 -4 -5
-4 -4 -4 -4 -5 -4 -4 -4 -5 -5 -6 -7 -7 -7 -7 -6 -7 -6 -7 -7 -6 -7 -8 -6 -7 -6 -6 -6 -6 -6 -7 -7 -6 -6 -5 -5 -5 -5 -4 -4 -4 -4 -3 -4 -5
-4 -4 -4 -5 -5 -5 -4 -5 -5 -5 -6 -7 -7 -7 -7 -7 -7 -7 -7 -7 -6 -8 -6 -6 -8 -7 -7 -7 -7 -7 -7 -7 -6 -6 -6 -5 -5 -5 -5 -4 -4 -4 -4 -4 -4
-4 -4 -5 -5 -5 -5 -5 -5 -5 -6 -6 -7 -7 -7 -7 -7 -7 -7 -7 -7 -7 -7 -8 -8 -8 -8 -7 -7 -7 -7 -7 -7 -6 -6 -6 -6 -6 -5 -5 -5 -4 -4 -5 -4 -4
-5 -5 -5 -5 -5 -5 -5 -5 -6 -6 -7 -7 -7 -8 -8 -8 -7 -7 -7 -7 -7 -7 -8 -9 -7 -8 -6 -6 -6 -6 -6 -6 -6 -6 -7 -7 -7 -6 -5 -5 -4 -4 -4 -4 -4
-5 -5 -5 -5 -5 -5 -5 -6 -6 -6 -7 -8 -7 -7 -7 -7 -7 -7 -6 -6 -6 -7 -8 -7 -7 -8 -7 -7 -6 -6 -6 -6 -6 -6 -7 -6 -6 -6 -5 -5 -4 -4 -4 -4 -4
-5 -5 -6 -6 -6 -6 -6 -6 -7 -6 -6 -7 -8 -7 -6 -7 -6 -6 -6 -6 -6 -7 -7 -7 -7 -7 -7 -7 -6 -6 -6 -6 -6 -6 -6 -6 -6 -6 -6 -5 -4 -5 -5 -5 -4
-6 -6 -6 -6 -6 -6 -6 -6 -7 -7 -6 -7 -7 -6 -6 -6 -6 -6 -6 -6 -6 -7 -7 -7 -8 -8 -7 -7 -6 -6 -6 -6 -6 -6 -6 -5 -6 -6 -5 -5 -5 -5 -5 -5 -5
-6 -6 -6 -6 -6 -6 -6 -6 -7 -7 -6 -7 -7 -7 -6 -7 -7 -6 -6 -6 -6 -6 -7 -7 -8 -7 -7 -7 -6 -6 -6 -6 -6 -6 -6 -6 -6 -6 -5 -5 -5 -5 -5 -5 -5
-6 -6 -6 -6 -6 -7 -7 -7 -7 -7 -7 -7 -7 -7 -7 -7 -6 -6 -6 -6 -6 -6 -6 -7 -7 -7 -7 -7 -7 -6 -6 -5 -5 -6 -6 -6 -6 -6 -7 -6 -5 -5 -5 -5 -5
-6 -6 -7 -7 -7 -7 -7 -7 -8 -8 -7 -7 -7 -7 -7 -6 -6 -6 -6 -6 -6 -6 -6 -6 -6 -7 -7 -6 -6 -5 -6 -5 -5 -6 -6 -6 -6 -6 -6 -6 -6 -6 -5 -5 -5
-6 -6 -7 -7 -7 -7 -7 -7 -7 -8 -8 -7 -7 -7 -6 -7 -6 -7 -6 -6 -6 -6 -6 -7 -7 -7 -6 -6 -6 -6 -6 -6 -6 -7 -6 -6 -6 -7 -6 -7 -7 -7 -7 -6 -6
-6 -6 -7 -7 -7 -7 -7 -7 -8 -7 -7 -7 -7 -7 -7 -7 -7 -7 -6 -6 -6 -6 -7 -7 -7 -6 -6 -6 -5 -6 -6 -6 -6 -5 -5 -6 -7 -6 -6 -6 -6 -7 -7 -6 -7
-6 -6 -7 -7 -7 -7 -7 -7 -8 -7 -7 -7 -7 -7 -7 -7 -7 -7 -6 -6 -7 -7 -7 -7 -7 -6 -6 -6 -6 -6 -6 -6 -5 -5 -6 -6 -7 -7 -6 -6 -7 -8 -7 -5 -7
-6 -6 -7 -7 -7 -7 -7 -7 -7 -7 -7 -7 -7 -7 -6 -6 -7 -6 -6 -6 -6 -6 -7 -7 -7 -7 -7 -6 -6 -6 -6 -5 -5 -5 -5 -7 -7 -7 -6 -7 -7 -8 -6 -7 -7
-6 -6 -6 -7 -7 -6 -7 -7 -7 -8 -8 -7 -7 -7 -6 -7 -7 -6 -6 -6 -6 -6 -6 -6 -6 -6 -6 -7 -6 -6 -6 -6 -6 -5 -6 -6 -6 -6 -7 -7 -7 -8 -8 -7 -7
-6 -6 -6 -7 -7 -7 -7 -8 -8 -8 -8 -7 -7 -7 -8 -7 -6 -6 -6 -6 -6 -6 -6 -6 -6 -7 -7 -6 -6 -7 -6 -5 -6 -5 -6 -6 -6 -6 -7 -8 -7 -7 -8 -8 -8
-6 -6 -6 -7 -6 -7 -7 -7 -8 -9 -8 -8 -7 -7 -7 -7 -8 -8 -6 -6 -7 -7 -7 -6 -6 -7 -7 -7 -7 -7 -6 -6 -6 -6 -6 -6 -6 -7 -7 -7 -7 -7 -8 -8 -8
-7 -7 -6 -6 -7 -7 -7 -7 -8 -8 -9 -8 -8 -7 -7 -7 -7 -8 -7 -7 -7 -7 -7 -7 -6 -7 -7 -7 -7 -7 -7 -7 -7 -6 -7 -7 -7 -7 -7 -7 -6 -7 -7 -7 -8
-7 -6 -7 -7 -7 -7 -7 -7 -7 -8 -8 -8 -8 -7 -7 -7 -7 -7 -7 -7 -7 -7 -7 -6 -6 -7 -7 -7 -8 -7 -7 -7 -6 -6 -7 -7 -7 -7 -7 -7 -6 -6 -6 -7 -7
-7 -7 -8 -8 -8 -8 -7 -7 -7 -8 -9 -9 -8 -8 -8 -7 -7 -7 -7 -7 -8 -8 -7 -7 -6 -6 -7 -7 -7 -7 -7 -7 -6 -6 -7 -7 -7 -7 -7 -7 -7 -6 -6 -6 -7
-7 -7 -7 -8 -8 -8 -8 -8 -7 -7 -8 -9 -8 -8 -8 -8 -7 -7 -7 -7 -8 -7 -8 -8 -7 -7 -6 -7 -7 -8 -7 -7 -7 -7 -7 -8 -7 -7 -7 -7 -7 -6 -6 -6 -6
Height
5901 5897 5893 5890 5888 5886 5884 5881 5879 5877 5876 5876 5878 5880 5881 5883 5885 5886 5885 5886 5887 5885 5888 5888 5886 5885 5882 5883 5883 5884 5889 5885 5888 5891 5890 5890 5892 5892 5891 5895 5893 5892 5892 5893 5895
5901 5897 5893 5890 5887 5885 5883 5881 5878 5876 5875 5875 5877 5879 5881 5883 5885 5886 5886 5886 5886 5892 5892 5889 5887 5885 5882 5883 5885 5882 5887 5888 5893 5892 5894 5892 5895 5895 5894 5896 5894 5892 5891 5891 5892
5901 5896 5892 5889 5886 5884 5882 5879 5877 5874 5873 5874 5875 5878 5881 5883 5885 5886 5887 5887 5891 5893 5891 5889 5886 5885 5883 5871 5890 5891 5889 5895 5898 5898 5896 5895 5897 5897 5897 5898 5895 5890 5889 5889 5890
5900 5896 5892 5888 5885 5883 5881 5878 5875 5872 5871 5872 5874 5877 5880 5883 5886 5887 5888 5890 5893 5893 5892 5888 5888 5891 5887 5887 5888 5892 5896 5900 5903 5900 5898 5897 5896 5897 5899 5896 5894 5891 5888 5888 5890
5899 5895 5891 5887 5885 5882 5879 5876 5873 5870 5869 5870 5872 5875 5879 5883 5885 5887 5889 5891 5893 5895 5892 5882 5891 5893 5889 5890 5895 5898 5899 5907 5906 5904 5901 5896 5895 5895 5895 5897 5892 5889 5888 5887 5888
5899 5894 5890 5886 5884 5881 5878 5875 5871 5868 5867 5868 5870 5874 5879 5883 5884 5888 5889 5893 5894 5896 5897 5893 5891 5893 5892 5891 5893 5898 5904 5910 5909 5908 5906 5905 5901 5898 5894 5895 5893 5891 5888 5887 5887
5898 5893 5889 5885 5883 5880 5877 5874 5870 5867 5866 5867 5870 5874 5879 5885 5887 5889 5891 5894 5896 5896 5898 5885 5892 5888 5885 5896 5895 5891 5899 5911 5911 5910 5907 5906 5902 5899 5898 5897 5896 5891 5891 5889 5889
5896 5892 5888 5885 5882 5879 5877 5873 5870 5867 5866 5868 5871 5875 5878 5882 5886 5890 5892 5895 5898 5899 5897 5890 5894 5896 5898 5902 5903 5897 5895 5910 5911 5913 5908 5907 5904 5902 5900 5899 5898 5895 5892 5891 5892
5894 5891 5887 5884 5881 5879 5876 5874 5871 5869 5869 5871 5874 5876 5880 5882 5887 5890 5893 5897 5899 5902 5901 5903 5900 5906 5904 5906 5911 5912 5910 5913 5914 5916 5912 5913 5909 5905 5903 5900 5900 5898 5896 5896 5895
5893 5890 5887 5884 5881 5879 5877 5874 5873 5871 5872 5873 5874 5878 5880 5883 5886 5889 5892 5898 5900 5901 5903 5904 5901 5900 5908 5907 5911 5913 5914 5914 5916 5915 5911 5909 5912 5910 5908 5906 5903 5901 5899 5899 5898
5891 5889 5886 5884 5881 5879 5878 5876 5877 5875 5873 5874 5877 5877 5881 5883 5884 5888 5891 5896 5900 5902 5904 5906 5900 5895 5905 5910 5913 5915 5922 5918 5918 5917 5910 5905 5917 5916 5912 5909 5908 5906 5905 5902 5903
5889 5888 5885 5884 5882 5880 5879 5878 5877 5879 5874 5875 5877 5879 5881 5883 5886 5888 5891 5895 5898 5902 5905 5906 5903 5906 5910 5914 5916 5918 5923 5920 5918 5918 5915 5918 5918 5915 5913 5912 5912 5912 5909 5906 5905
5887 5887 5885 5884 5882 5881 5880 5879 5878 5880 5881 5877 5879 5882 5881 5885 5887 5888 5892 5894 5897 5900 5903 5903 5905 5907 5913 5913 5915 5921 5922 5919 5917 5917 5914 5915 5917 5917 5915 5914 5914 5914 5912 5911 5909
5885 5885 5884 5883 5883 5882 5881 5879 5880 5882 5882 5880 5880 5882 5883 5885 5887 5889 5892 5895 5897 5900 5902 5903 5907 5912 5913 5915 5916 5916 5917 5919 5920 5917 5914 5912 5915 5919 5918 5917 5917 5917 5917 5914 5912
5883 5883 5883 5883 5883 5883 5885 5883 5880 5883 5879 5883 5883 5884 5884 5887 5887 5889 5892 5895 5897 5899 5903 5904 5906 5911 5913 5913 5912 5915 5916 5917 5916 5916 5918 5911 5916 5917 5919 5918 5919 5920 5919 5919 5916
5880 5881 5882 5882 5883 5884 5884 5882 5885 5885 5882 5885 5887 5886 5887 5887 5887 5890 5893 5895 5897 5900 5903 5905 5905 5909 5909 5909 5910 5912 5917 5917 5916 5916 5912 5912 5914 5913 5915 5918 5916 5919 5919 5918 5916
5877 5878 5880 5881 5883 5884 5886 5884 5886 5883 5888 5890 5891 5890 5888 5889 5889 5892 5894 5896 5898 5900 5902 5904 5907 5907 5909 5909 5908 5910 5914 5913 5915 5912 5912 5910 5908 5913 5911 5914 5915 5914 5915 5917 5916
5874 5876 5878 5879 5880 5882 5884 5886 5884 5884 5888 5889 5895 5892 5890 5891 5895 5896 5897 5898 5899 5900 5900 5904 5904 5908 5910 5910 5911 5910 5913 5914 5910 5910 5909 5906 5908 5909 5909 5909 5906 5912 5915 5914 5913
5871 5872 5875 5877 5878 5879 5882 5884 5884 5885 5889 5897 5897 5896 5894 5896 5897 5899 5899 5898 5899 5902 5903 5904 5904 5909 5909 5909 5908 5909 5909 5910 5910 5911 5901 5901 5900 5905 5907 5908 5905 5902 5908 5907 5904
5867 5869 5872 5875 5876 5877 5881 5883 5884 5881 5889 5889 5901 5899 5900 5900 5899 5899 5899 5901 5900 5902 5907 5907 5905 5906 5908 5909 5908 5909 5911 5911 5910 5910 5904 5900 5900 5904 5903 5904 5898 5885 5903 5893 5868
5863 5865 5869 5870 5873 5876 5879 5882 5882 5881 5884 5891 5895 5896 5895 5894 5896 5901 5900 5902 5903 5904 5904 5905 5905 5908 5906 5903 5906 5905 5905 5906 5907 5908 5905 5901 5903 5896 5899 5892 5885 5884 5894 5889 5887
5859 5860 5865 5867 5871 5874 5877 5880 5880 5881 5884 5886 5890 5892 5890 5888 5894 5895 5900 5900 5901 5901 5900 5903 5904 5904 5904 5900 5898 5899 5903 5904 5905 5907 5902 5900 5899 5896 5895 5887 5879 5888 5889 5897 5887
5855 5856 5861 5864 5868 5871 5874 5876 5878 5878 5878 5883 5890 5891 5893 5893 5889 5890 5893 5895 5896 5897 5897 5900 5902 5901 5900 5899 5899 5900 5900 5901 5901 5902 5899 5896 5896 5893 5893 5892 5891 5889 5886 5897 5905
5852 5853 5853 5857 5862 5866 5870 5871 5872 5877 5877 5883 5883 5884 5885 5888 5890 5889 5889 5889 5889 5891 5894 5894 5897 5897 5896 5896 5895 5895 5897 5897 5898 5898 5893 5893 5893 5889 5889 5891 5884 5893 5889 5899 5900
5849 5850 5853 5854 5855 5857 5861 5865 5867 5868 5869 5872 5875 5880 5881 5882 5882 5881 5884 5877 5882 5885 5888 5888 5888 5891 5893 5890 5891 5895 5895 5895 5895 5895 5893 5891 5890 5888 5888 5889 5890 5893 5891 5896 5899
5846 5846 5848 5848 5850 5854 5857 5857 5860 5863 5864 5863 5867 5864 5872 5872 5871 5873 5879 5881 5881 5883 5884 5883 5884 5886 5888 5890 5892 5892 5892 5892 5890 5890 5890 5890 5887 5886 5886 5887 5886 5890 5892 5896 5900
5841 5843 5844 5845 5844 5846 5845 5847 5849 5853 5855 5856 5853 5856 5860 5859 5864 5870 5872 5875 5878 5875 5880 5880 5880 5882 5884 5887 5888 5888 5890 5889 5888 5887 5886 5885 5883 5884 5882 5881 5883 5886 5889 5889 5892
Wind_Speed
30 27 24 19 16 17 17 16 13 8 7 8 10 11 12 11 11 12 12 12 10 10 9 8 8 7 14 21 15 19 24 15 16 11 13 13 11 11 11 10 7 3 6 9 10
29 27 24 20 16 16 16 17 15 10 7 8 11 12 13 13 13 13 10 7 6 10 7 6 7 8 14 16 21 23 19 20 17 5 10 8 9 12 15 5 9 2 5 7 10
29 26 24 19 16 15 16 17 16 13 8 8 12 14 15 17 15 14 8 5 7 8 5 5 11 8 8 4 27 23 28 20 12 11 7 6 2 5 8 7 10 8 5 5 8
31 26 24 20 16 16 16 17 17 15 8 10 13 15 17 18 18 15 10 8 7 5 8 7 12 4 4 34 30 34 30 24 17 13 11 9 7 11 9 10 10 7 6 3 3
30 26 25 21 16 16 16 17 18 13 6 11 14 16 17 19 17 16 10 11 5 11 7 0 15 18 44 35 31 27 32 23 18 17 12 18 16 15 14 15 16 11 8 3 5
30 26 24 21 16 15 16 17 17 11 4 11 15 16 17 20 19 18 12 12 5 7 18 5 29 30 29 31 25 21 19 20 19 19 18 12 7 14 17 18 18 15 9 9 8
28 25 23 20 16 15 16 17 15 10 3 11 14 15 16 18 18 16 15 11 10 8 4 13 10 10 15 26 15 18 25 21 18 18 15 15 18 17 17 16 16 19 16 13 11
26 23 21 18 15 14 14 15 13 9 4 10 12 14 16 20 21 16 15 11 14 12 11 14 11 24 36 35 26 17 20 16 19 14 8 13 18 18 18 18 17 19 23 16 12
22 20 19 17 14 12 13 13 10 8 10 9 8 10 13 18 19 17 17 13 15 15 19 13 5 28 29 27 23 20 11 8 19 18 8 7 19 19 20 18 18 18 19 19 18
18 18 17 14 12 11 11 12 8 7 9 8 12 14 16 16 19 18 18 15 15 15 14 16 11 17 29 26 22 17 12 14 20 22 11 19 19 17 15 17 18 18 17 16 16
15 15 14 12 10 10 9 11 10 4 10 9 3 11 12 12 17 20 20 18 19 15 19 16 14 23 19 18 16 17 2 18 22 16 14 20 12 12 13 15 17 18 18 18 16
13 12 11 9 7 8 7 7 11 5 11 12 6 6 12 12 14 17 19 19 21 21 19 13 4 17 14 14 14 14 6 12 14 11 12 9 9 11 13 14 14 14 16 19 20
11 9 7 6 5 5 6 7 11 9 5 13 8 5 9 7 10 15 17 20 22 24 20 10 11 9 3 13 6 2 4 8 14 17 27 17 9 8 8 7 7 8 9 12 13
10 6 4 3 4 7 8 11 11 8 11 13 8 5 7 7 8 12 13 14 20 23 22 13 9 5 6 8 3 10 9 17 18 20 27 23 23 18 10 10 3 3 6 10 12
9 5 2 2 8 13 15 14 16 10 18 19 7 6 5 5 9 7 8 10 14 18 19 8 8 1 7 9 17 8 11 3 1 11 14 27 28 30 7 2 5 4 3 2 8
9 7 4 4 10 8 11 16 13 14 16 16 18 1 3 3 8 5 5 7 10 13 11 3 5 10 12 8 4 12 9 13 12 9 20 20 22 26 14 11 14 7 4 1 4
10 9 7 7 12 14 11 13 17 18 13 17 22 3 7 9 8 4 4 8 11 17 13 9 11 8 11 12 12 6 9 16 18 9 19 22 21 7 5 10 14 15 13 6 6
10 11 10 9 12 13 12 15 13 16 14 7 15 10 13 13 12 3 10 16 9 8 8 2 9 3 6 6 6 5 3 13 11 7 23 23 14 16 16 12 14 19 16 12 10
10 12 14 12 12 14 18 15 10 27 20 7 10 9 4 4 10 9 14 15 10 10 11 12 8 2 10 14 9 15 12 10 4 6 18 22 11 9 18 19 39 29 29 20 16
11 12 17 14 14 15 20 17 10 29 19 17 7 1 4 5 11 13 7 5 5 8 10 7 16 3 11 9 7 4 8 3 5 9 18 20 11 18 23 23 24 40 29 29 34
11 14 15 20 18 15 16 18 14 15 11 10 12 19 19 20 21 7 6 10 7 9 16 19 10 2 10 21 11 7 11 10 16 7 15 22 25 23 21 26 36 17 12 9 12
10 16 16 22 20 16 17 21 11 20 10 2 18 10 16 10 22 14 9 18 14 15 18 7 11 5 11 15 15 12 8 12 14 7 21 21 24 27 25 26 33 5 18 12 17
10 14 12 20 20 18 18 22 12 10 7 8 11 14 6 8 14 9 18 18 20 21 22 21 19 10 8 13 9 3 2 9 10 11 18 22 19 23 25 29 19 19 19 16 10
11 13 17 18 21 22 22 24 18 10 21 15 20 20 19 17 12 17 15 25 24 21 18 20 18 22 11 13 11 12 5 4 9 9 16 18 19 25 28 28 16 11 12 3 4
10 13 12 14 24 28 29 28 29 21 26 21 22 25 24 22 18 18 14 23 11 18 24 23 18 28 15 10 11 7 13 14 17 15 17 14 16 21 23 25 22 14 6 6 8
10 10 14 15 17 18 31 35 34 32 17 21 29 23 20 35 33 28 22 21 22 10 21 15 14 25 29 13 8 14 6 14 11 16 14 10 12 16 23 22 24 13 16 8 6
11 14 14 17 21 23 29 32 37 38 37 31 32 26 30 33 43 34 31 30 24 16 6 8 7 10 15 6 12 18 3 11 11 10 10 6 10 13 21 26 28 23 15 14 14
Wind_Direction
360 1 360 360 357 358 359 358 354 330 285 234 200 184 178 146 128 128 126 121 136 134 80 86 105 160 141 125 130 61 105 100 79 84 91 58 20 49 42 39 44 358 285 252 246
357 359 357 356 355 353 353 353 349 332 291 237 203 186 180 153 145 134 138 131 160 77 77 116 137 141 139 128 126 57 83 70 67 98 87 112 45 51 356 348 358 320 296 263 245
356 354 354 353 353 351 351 350 344 331 290 227 208 190 181 159 162 161 162 183 116 45 86 153 176 177 230 170 100 85 71 51 54 64 129 45 106 19 54 43 356 333 322 289 236
354 351 352 350 349 350 349 347 342 333 294 216 208 192 184 169 178 168 182 183 110 72 26 170 174 116 348 106 85 72 65 61 54 56 38 58 55 44 48 31 14 345 359 293 230
352 348 350 351 349 347 349 347 342 337 300 210 203 193 184 177 183 168 165 174 113 107 58 225 183 145 90 74 75 71 59 51 48 53 31 31 24 20 37 41 17 17 12 354 191
348 347 347 350 350 348 351 350 347 342 309 204 198 192 183 176 181 171 159 159 138 113 92 33 93 88 85 102 101 85 72 45 35 37 49 40 21 32 27 38 29 26 23 36 126
343 344 346 348 351 349 353 354 354 353 350 192 190 186 182 173 177 174 176 151 127 95 157 64 110 1 37 74 80 103 63 35 29 33 39 38 45 38 34 33 34 34 45 56 96
339 341 345 348 353 353 358 2 6 16 64 167 176 176 180 180 183 181 182 158 141 128 89 74 63 45 73 63 62 28 66 10 16 19 30 54 46 40 41 44 38 41 49 52 62
335 339 344 350 355 360 4 8 21 56 94 122 139 160 162 181 181 190 189 167 147 149 108 120 72 88 91 79 68 47 63 355 11 11 24 44 41 32 39 41 49 46 48 51 50
332 338 345 353 358 5 10 16 29 81 108 127 144 153 170 181 192 194 198 170 159 155 150 129 314 72 93 91 79 79 355 319 331 354 326 59 36 22 23 39 47 52 53 51 49
324 334 343 355 3 5 17 24 26 80 117 109 149 162 171 173 184 192 193 178 167 160 155 144 310 88 71 61 80 80 33 306 329 350 348 35 22 18 11 20 38 48 56 56 55
312 328 340 356 10 8 31 35 52 36 103 105 96 132 164 156 177 190 194 180 175 168 159 155 244 81 74 87 72 79 336 291 315 344 332 354 16 27 25 21 15 29 45 52 56
300 317 337 359 27 31 65 74 85 82 77 96 98 127 117 139 172 186 193 189 182 177 172 149 37 4 84 98 50 135 214 294 302 312 304 314 337 348 349 7 9 8 47 46 52
291 298 329 19 54 76 82 86 98 100 89 81 77 108 118 135 160 184 187 194 195 188 181 162 93 327 313 110 279 199 234 238 256 282 288 308 305 311 305 324 345 16 61 75 66
281 267 274 110 108 104 84 78 91 81 49 46 58 97 105 161 147 126 169 192 201 199 193 156 116 151 309 255 241 233 222 22 156 235 228 273 273 262 342 319 357 280 150 53 57
271 243 214 152 138 114 116 101 101 77 44 16 12 21 129 97 114 84 138 173 182 206 182 149 144 208 257 305 130 108 85 31 2 344 272 275 273 304 317 299 289 247 227 265 83
265 234 202 179 156 138 123 102 102 90 64 349 347 76 145 92 81 91 152 142 143 122 98 45 32 27 47 119 100 359 19 346 310 301 282 293 279 306 323 288 235 205 182 181 141
259 232 204 200 183 182 162 144 130 137 125 102 327 62 52 51 44 9 132 132 136 103 75 319 264 264 338 344 307 179 298 298 297 18 296 297 236 270 274 260 251 233 194 191 135
254 232 208 203 200 194 171 161 149 113 109 160 329 23 49 332 344 37 139 137 79 46 355 330 125 195 271 352 309 191 173 238 317 357 267 267 266 266 300 288 295 254 191 203 164
249 230 212 204 207 205 182 172 147 130 137 133 287 306 242 315 302 333 38 68 35 314 245 250 314 307 228 301 348 304 274 169 287 328 326 334 319 298 313 299 299 286 168 194 180
247 230 218 209 211 209 195 192 166 122 109 151 243 220 219 209 192 297 292 312 258 246 260 236 219 8 240 233 235 208 240 251 270 272 336 321 317 316 321 330 338 16 156 88 97
251 235 210 219 214 206 195 191 237 140 160 163 224 179 233 289 186 194 237 254 235 252 249 257 203 225 287 270 238 223 275 264 258 247 307 298 299 309 325 343 331 289 136 130 80
243 250 233 226 219 209 202 205 228 292 156 145 261 228 228 268 278 157 239 234 230 242 263 269 237 224 282 325 258 204 284 255 233 261 298 293 323 315 317 325 315 147 148 149 154
239 234 234 210 214 218 213 207 189 208 255 248 234 220 220 222 215 238 248 254 235 238 257 270 244 230 214 282 291 156 161 250 269 245 317 320 334 345 344 337 343 136 124 149 135
261 268 288 268 218 216 215 213 216 222 219 215 240 243 240 222 205 214 236 269 293 298 296 292 272 222 195 269 336 303 275 250 268 261 260 305 325 327 327 326 334 5 70 48 354
247 248 229 234 240 240 229 225 220 219 244 198 227 205 227 235 225 207 210 222 243 265 287 273 258 228 229 219 264 304 283 317 322 282 279 276 297 297 304 310 314 325 342 296 357
265 245 243 246 240 235 231 229 229 226 219 221 237 220 208 224 230 221 213 220 238 220 278 296 287 254 220 212 262 253 233 277 272 267 267 273 267 291 297 295 299 318 328 311 353